Weather History for Kankakee, IL

Change the Weather History Date:

Tuesday, March 5, 2013

  Actual Average Record
Temperature  
Mean Temperature 30 °F -  
Max Temperature 32 °F 47 °F 73 °F (1983)
Min Temperature 28 °F 26 °F -6 °F (1978)
Degree Days  
Heating Degree Days 35    
Moisture  
Dew Point 30 °F    
Average Humidity 95    
Maximum Humidity 100    
Minimum Humidity 87    
Precipitation  
Precipitation 0.13 in - - ()
Sea Level Pressure  
Sea Level Pressure 29.85 in    
Wind  
Wind Speed 10 mph (NE)    
Max Wind Speed 14 mph    
Max Gust Speed 20 mph    
Visibility 4 miles    
Events Rain , Snow    
Averages and records for this station are not official NWS values.
T = Trace of Precipitation, MM = Missing Value Source: NWS Daily Summary

Daily Weather History Graph

Daily Weather History Graph

Search for Another Location

Airport:

Trip Planner

Search our weather history database for the weather conditions in past years. The results will help you decide how hot, cold, wet, or windy it might be!

Date:

Astronomy

Mar. 05, 2013 Rise Set
Actual Time 6:18 AM CST 5:47 PM CST
Civil Twilight 5:51 AM CST 6:14 PM CST
Nautical Twilight 5:19 AM CST 6:46 PM CST
Astronomical Twilight 4:47 AM CST 7:18 PM CST
Moon 1:33 AM CST (3/5) 11:23 AM CST (3/5)
Length of Visible Light 12h 23m
Length of Day
11h 28m
Last Quarter, 40% of the Moon is Illuminated
Mar 5
Last Quarter
Mar 11
New
Mar 19
First Quarter
Mar 27
Full
Apr 2
Last Quarter

Hourly Weather History & Observations

Time (CST) Temp. Windchill Dew Point Humidity Pressure Visibility Wind Dir Wind Speed Gust Speed Precip Events Conditions
12:35 AM 32.0 °F 22.5 °F 28.4 °F 87% 29.95 in 10.0 mi ENE 12.7 mph - N/A   Overcast
12:55 AM 32.0 °F 23.0 °F 28.9 °F 88% 29.94 in 10.0 mi East 11.5 mph - N/A   Overcast
1:15 AM 32.0 °F 23.6 °F 29.3 °F 90% 29.94 in 10.0 mi ENE 10.4 mph - N/A   Overcast
1:35 AM 32.0 °F 23.6 °F 29.3 °F 90% 29.93 in 10.0 mi East 10.4 mph - N/A   Overcast
1:55 AM 32.0 °F 23.0 °F 30.2 °F 93% 29.93 in 10.0 mi East 11.5 mph - N/A   Overcast
2:15 AM 32.2 °F 23.2 °F 29.5 °F 90% 29.92 in 10.0 mi East 11.5 mph - N/A   Overcast
2:35 AM 32.2 °F 23.8 °F 29.7 °F 90% 29.91 in 10.0 mi East 10.4 mph - N/A   Overcast
2:55 AM 32.2 °F 23.2 °F 29.7 °F 90% 29.90 in 10.0 mi East 11.5 mph - N/A   Overcast
3:15 AM 32.0 °F 23.6 °F 29.7 °F 91% 29.89 in 10.0 mi ENE 10.4 mph - N/A   Overcast
3:35 AM 32.0 °F 24.2 °F 29.7 °F 91% 29.89 in 10.0 mi ENE 9.2 mph - N/A   Overcast
3:55 AM 32.0 °F 23.6 °F 29.7 °F 91% 29.88 in 10.0 mi ENE 10.4 mph - N/A   Overcast
4:15 AM 32.0 °F 23.0 °F 29.7 °F 91% 29.88 in 10.0 mi ENE 11.5 mph - N/A   Overcast
4:35 AM 32.0 °F 24.2 °F 29.7 °F 91% 29.87 in 10.0 mi ENE 9.2 mph - N/A   Overcast
4:55 AM 32.0 °F 24.8 °F 29.8 °F 92% 29.88 in 10.0 mi East 8.1 mph - N/A   Overcast
5:15 AM 32.0 °F 23.6 °F 30.0 °F 92% 29.88 in 7.0 mi East 10.4 mph - N/A Rain Rain
5:35 AM 32.0 °F 23.0 °F 30.2 °F 93% 29.87 in 5.0 mi East 11.5 mph - N/A   Overcast
5:55 AM 32.0 °F 22.5 °F 30.2 °F 93% 29.86 in 10.0 mi East 12.7 mph - N/A Rain Light Rain
6:15 AM 32.0 °F 22.1 °F 30.2 °F 93% 29.86 in 7.0 mi East 13.8 mph - N/A   Overcast
6:35 AM 32.2 °F 22.7 °F 30.2 °F 92% 29.85 in 7.0 mi East 12.7 mph - N/A   Overcast
6:55 AM 32.0 °F 22.5 °F 30.2 °F 93% 29.85 in 7.0 mi East 12.7 mph - N/A   Overcast
7:15 AM 32.7 °F 23.4 °F 30.2 °F 90% 29.85 in 10.0 mi East 12.7 mph 17.3 mph N/A   Overcast
7:35 AM 32.9 °F 24.7 °F 30.6 °F 91% 29.85 in 7.0 mi East 10.4 mph - N/A Rain Light Rain
7:55 AM 32.9 °F 25.3 °F 30.7 °F 92% 29.86 in 7.0 mi East 9.2 mph - N/A   Light Drizzle
8:15 AM 32.9 °F 25.9 °F 30.7 °F 92% 29.86 in 7.0 mi East 8.1 mph - N/A Rain Light Rain
8:35 AM 32.9 °F 25.9 °F 31.1 °F 93% 29.86 in 3.0 mi East 8.1 mph - N/A Snow Light Snow
8:55 AM 32.5 °F 24.8 °F 31.5 °F 96% 29.85 in 3.0 mi East 9.2 mph - N/A Rain Light Rain
9:15 AM 32.5 °F 26.2 °F 31.6 °F 96% 29.84 in 3.0 mi East 6.9 mph - N/A Snow Light Snow
9:35 AM 32.4 °F 24.6 °F 31.8 °F 98% 29.83 in 1.2 mi ENE 9.2 mph - N/A Snow Light Snow
9:55 AM 32.2 °F 24.4 °F 31.8 °F 99% 29.82 in 1.5 mi East 9.2 mph - N/A Snow Light Snow
10:15 AM 32.0 °F 24.2 °F 31.8 °F 99% 29.82 in 1.0 mi East 9.2 mph - N/A Snow Light Snow
10:35 AM 32.0 °F 24.2 °F 32.0 °F 100% 29.80 in 1.0 mi East 9.2 mph - 0.01 in Snow Light Snow
10:55 AM 32.0 °F 24.2 °F 32.0 °F 100% 29.80 in 1.5 mi East 9.2 mph - 0.01 in Snow Light Snow
11:15 AM 32.0 °F 25.6 °F 32.0 °F 100% 29.80 in 1.2 mi East 6.9 mph - N/A Snow Light Snow
11:35 AM 32.0 °F 24.8 °F 31.8 °F 99% 29.80 in 0.8 mi East 8.1 mph - N/A Snow Light Snow
11:55 AM 32.0 °F 26.4 °F 31.8 °F 99% 29.79 in 0.5 mi East 5.8 mph - 0.01 in Snow Light Snow
12:15 PM 32.0 °F 24.8 °F 31.6 °F 99% 29.79 in 1.0 mi ENE 8.1 mph - N/A Snow Light Snow
12:35 PM 32.0 °F 26.4 °F 31.8 °F 99% 29.78 in 1.0 mi ENE 5.8 mph - 0.01 in Snow Light Snow
12:55 PM 32.0 °F 26.4 °F 31.6 °F 99% 29.77 in 0.8 mi ENE 5.8 mph - 0.01 in Snow Light Snow
1:15 PM 32.0 °F 26.4 °F 31.6 °F 99% 29.77 in 0.8 mi ENE 5.8 mph - 0.01 in Snow Light Snow
1:35 PM 32.0 °F 27.5 °F 31.8 °F 99% 29.76 in 0.5 mi NNE 4.6 mph - 0.02 in Snow Light Snow
1:55 PM 32.0 °F 28.7 °F 31.6 °F 99% 29.76 in 0.5 mi NE 3.5 mph - 0.03 in Snow Snow
2:15 PM 32.0 °F 27.5 °F 31.8 °F 99% 29.76 in 0.5 mi North 4.6 mph - 0.01 in Snow Snow
2:35 PM 32.0 °F 28.7 °F 31.6 °F 99% 29.77 in 0.5 mi North 3.5 mph - 0.01 in Snow Light Snow
2:55 PM 32.0 °F 26.4 °F 31.6 °F 99% 29.77 in 0.8 mi North 5.8 mph - 0.03 in Snow Light Snow
3:15 PM 32.0 °F 27.5 °F 31.6 °F 99% 29.77 in 0.8 mi North 4.6 mph - 0.02 in Snow Light Snow
3:35 PM 32.0 °F 26.4 °F 31.5 °F 98% 29.77 in 1.0 mi North 5.8 mph - 0.03 in Snow Light Snow
3:55 PM 31.8 °F 26.2 °F 31.1 °F 97% 29.78 in 1.0 mi North 5.8 mph - 0.04 in Snow Light Snow
4:15 PM 31.8 °F 24.6 °F 31.1 °F 97% 29.78 in 0.8 mi North 8.1 mph - N/A Snow Light Snow
4:35 PM 31.6 °F - 31.1 °F 98% 29.78 in 0.5 mi Calm Calm - N/A Snow Light Snow
4:55 PM 31.5 °F - 31.1 °F 99% 29.79 in 0.8 mi Calm Calm - N/A Snow Light Snow
5:15 PM 31.1 °F 24.5 °F 30.6 °F 98% 29.79 in 0.8 mi North 6.9 mph - N/A Snow Light Snow
5:35 PM 30.7 °F 22.0 °F 30.2 °F 98% 29.80 in 0.5 mi North 10.4 mph - N/A Snow Light Snow
5:55 PM 30.2 °F 20.8 °F 29.7 °F 98% 29.80 in 1.2 mi North 11.5 mph - N/A Snow Light Snow
6:15 PM 29.3 °F 19.6 °F 28.4 °F 96% 29.82 in 1.5 mi North 11.5 mph - N/A Snow Light Snow
6:35 PM 29.1 °F 19.4 °F 28.0 °F 96% 29.82 in 1.5 mi North 11.5 mph 18.4 mph N/A Snow Light Snow
6:55 PM 28.9 °F 21.1 °F 27.9 °F 96% 29.83 in 1.8 mi North 8.1 mph 16.1 mph N/A Snow Light Snow
7:15 PM 28.9 °F 19.8 °F 27.9 °F 96% 29.83 in 2.0 mi North 10.4 mph - N/A Snow Light Snow
7:35 PM 28.9 °F 20.4 °F 27.7 °F 95% 29.84 in 2.0 mi North 9.2 mph 19.6 mph N/A Snow Light Snow
7:55 PM 28.9 °F 22.8 °F 28.0 °F 96% 29.85 in 2.0 mi North 5.8 mph - N/A Snow Light Snow
8:15 PM 29.3 °F 20.8 °F 28.4 °F 96% 29.86 in 2.5 mi North 9.2 mph - N/A   Overcast
8:35 PM 29.3 °F 21.5 °F 28.4 °F 96% 29.87 in 2.0 mi NNW 8.1 mph - N/A Snow Light Snow
8:55 PM 29.3 °F 20.2 °F 28.4 °F 96% 29.87 in 3.0 mi NNW 10.4 mph 17.3 mph N/A Snow Light Snow
9:15 PM 29.3 °F 22.3 °F 28.4 °F 96% 29.89 in 2.5 mi NW 6.9 mph - N/A Snow Light Snow
9:35 PM 29.7 °F 21.3 °F 28.8 °F 96% 29.89 in 2.5 mi NNW 9.2 mph - N/A Snow Light Snow
9:55 PM 30.0 °F 21.1 °F 29.3 °F 97% 29.90 in 1.8 mi NNW 10.4 mph - N/A Snow Light Snow
10:15 PM 30.2 °F 22.6 °F 29.3 °F 96% 29.90 in 2.0 mi North 8.1 mph - N/A Snow Light Snow
10:35 PM 30.2 °F 23.4 °F 29.7 °F 98% 29.92 in 1.5 mi NNW 6.9 mph - N/A Snow Light Snow
10:55 PM 30.2 °F 22.6 °F 29.7 °F 98% 29.92 in 2.5 mi NNW 8.1 mph - N/A Snow Light Snow
11:15 PM 30.6 °F 22.4 °F 29.5 °F 96% 29.93 in 3.0 mi NNW 9.2 mph - N/A Snow Light Snow
11:35 PM 30.2 °F 21.9 °F 29.3 °F 96% 29.93 in 7.0 mi NW 9.2 mph - N/A Snow Light Snow
11:55 PM 29.1 °F 21.3 °F 27.9 °F 95% 29.94 in 5.0 mi NW 8.1 mph - N/A Snow Light Snow